GW4602 Weather Reports


Display with metric or nautical units.
time (UTC)temp
F
wind
direction
speed
MPH
gust
MPH
rain 1hr
in
rain 24hr
in
rain mn
in
humidity
%
barometer
mb
20260502152218 52 14 1.0 3.0 0.00 0.00 0.00 53 1017.9
20260502151716 53 23 4.0 7.0 0.00 0.00 0.00 47 1018.2
20260502151212 53 330 7.0 10.0 0.00 0.00 0.00 45 1018.2
20260502150710 53 317 3.0 7.0 0.00 0.00 0.00 51 1018.2
20260502150206 52 315 1.0 6.0 0.00 0.00 0.00 51 1018.2
20260502140130 51 298 0.0 2.0 0.00 0.00 0.00 57 1018.5
20260502130554 46 313 0.0 0.0 0.00 0.00 0.00 68 1018.5
20260502123537 45 1 0.0 0.0 0.00 0.00 0.00 77 1018.6
20260502123033 45 54 0.0 0.0 0.00 0.00 0.00 77 1018.5
20260502122531 45 269 0.0 0.0 0.00 0.00 0.00 79 1018.5
20260502122028 44 235 0.0 0.0 0.00 0.00 0.00 79 1018.7
20260502121525 44 124 0.0 0.0 0.00 0.00 0.00 83 1018.5
20260502121023 43 104 0.0 0.0 0.00 0.00 0.00 83 1018.6
20260502120519 43 109 0.0 0.0 0.00 0.00 0.00 83 1018.5
20260502115514 42 128 0.0 0.0 0.00 0.00 0.00 83 1018.5
20260502115009 42 120 0.0 0.0 0.00 0.00 0.00 83 1018.5
20260502114506 42 118 0.0 0.0 0.00 0.00 0.00 85 1018.5
20260502114003 42 122 0.0 0.0 0.00 0.00 0.00 85 1018.4
20260502113500 41 95 1.0 2.0 0.00 0.00 0.00 86 1018.3
20260502112959 40 124 0.0 0.0 0.00 0.00 0.00 89 1018.5
20260502112456 38 135 0.0 0.0 0.00 0.00 0.00 91 1018.5
20260502111954 38 135 0.0 0.0 0.00 0.00 0.00 91 1018.4
20260502111451 38 135 0.0 1.0 0.00 0.00 0.00 90 1018.2
20260502110948 38 135 0.0 0.0 0.00 0.00 0.00 91 1018.2
20260502110446 38 75 0.0 0.0 0.00 0.00 0.00 91 1018.3
20260502105943 37 59 0.0 0.0 0.00 0.00 0.00 91 1018.4
20260502105441 37 59 0.0 0.0 0.00 0.00 0.00 90 1018.2
20260502104938 37 59 0.0 0.0 0.00 0.00 0.00 90 1018.2
20260502104435 38 59 0.0 0.0 0.00 0.00 0.00 90 1018.3
20260502103932 38 59 0.0 0.0 0.00 0.00 0.00 89 1018.2
20260502103430 38 59 0.0 0.0 0.00 0.00 0.00 89 1018.3
20260502102927 38 59 0.0 0.0 0.00 0.00 0.00 89 1018.2
20260502102423 38 59 0.0 0.0 0.00 0.00 0.00 88 1018.3
20260502101920 38 59 0.0 0.0 0.00 0.00 0.00 88 1018.4
20260502101419 39 59 0.0 0.0 0.00 0.00 0.00 88 1018.5
20260502100916 39 59 0.0 0.0 0.00 0.00 0.00 88 1018.2
20260502100416 39 59 0.0 0.0 0.00 0.00 0.00 87 1018.3
20260502091349 43 36 0.0 0.0 0.00 0.00 0.00 75 1018.3
20260502090847 43 306 0.0 1.0 0.00 0.00 0.00 75 1018.5
20260502090343 44 339 0.0 0.0 0.00 0.00 0.00 74 1018.4
20260502071238 46 333 0.0 0.0 0.00 0.00 0.00 61 1018.0
20260502070737 47 322 0.0 3.0 0.00 0.00 0.00 60 1018.0
20260502070234 47 318 1.0 2.0 0.00 0.00 0.00 62 1017.9
20260502065732 47 316 0.0 1.0 0.00 0.00 0.00 65 1018.0
20260502065230 47 26 0.0 3.0 0.00 0.00 0.00 63 1018.0
20260502064728 47 290 1.0 4.0 0.00 0.00 0.00 64 1017.9
20260502064226 47 11 2.0 3.0 0.00 0.00 0.00 63 1018.1
20260502063723 47 348 2.0 4.0 0.00 0.00 0.00 64 1018.1
20260502063221 48 341 1.0 1.0 0.00 0.00 0.00 66 1018.1
20260502062717 48 323 1.0 1.0 0.00 0.00 0.00 63 1018.1
20260502062216 48 318 2.0 3.0 0.00 0.00 0.00 64 1018.2
20260502061714 48 356 1.0 4.0 0.00 0.00 0.00 64 1018.3
20260502061211 48 344 1.0 2.0 0.00 0.00 0.00 64 1018.4
20260502060706 48 331 1.0 2.0 0.00 0.00 0.00 65 1018.2
20260502060202 48 28 0.0 2.0 0.00 0.00 0.00 63 1018.4
20260502055700 48 82 0.0 0.0 0.00 0.00 0.00 64 1018.2
20260502055158 48 6 0.0 0.0 0.00 0.00 0.00 62 1018.2
20260502054657 48 298 0.0 1.0 0.00 0.00 0.00 64 1018.4
20260502054154 48 358 0.0 1.0 0.00 0.00 0.00 65 1018.5
20260502053651 48 270 0.0 1.0 0.00 0.00 0.00 68 1018.3
20260502053148 48 275 0.0 0.0 0.00 0.00 0.00 68 1018.2
20260502052646 49 311 0.0 0.0 0.00 0.00 0.00 69 1018.3
20260502052144 49 293 0.0 0.0 0.00 0.00 0.00 68 1018.3
20260502051642 49 68 0.0 4.0 0.00 0.00 0.00 67 1018.2
20260502051140 49 49 1.0 3.0 0.00 0.00 0.00 68 1018.3
20260502050636 49 1 1.0 6.0 0.00 0.00 0.00 68 1018.3
20260502050133 49 327 3.0 7.0 0.00 0.00 0.00 69 1018.4
20260502045629 49 329 4.0 4.0 0.00 0.00 0.00 70 1018.4
20260502045127 49 325 3.0 6.0 0.00 0.00 0.00 70 1018.4
20260502044623 49 43 2.0 8.0 0.00 0.00 0.00 70 1018.2
20260502044120 49 324 5.0 7.0 0.00 0.00 0.00 70 1018.5
20260502043618 49 296 5.0 7.0 0.00 0.00 0.00 70 1018.3
20260502043114 49 335 0.0 0.0 0.00 0.00 0.00 72 1018.2
20260502042608 49 299 1.0 1.0 0.00 0.00 0.00 71 1018.2
20260502042106 50 60 0.0 0.0 0.00 0.00 0.00 71 1018.2
20260502041603 50 347 1.0 6.0 0.00 0.00 0.00 69 1018.3
20260502041100 50 314 1.0 3.0 0.00 0.00 0.00 68 1018.1
20260502040557 50 311 0.0 3.0 0.00 0.00 0.00 67 1018.1
20260502040054 50 346 3.0 4.0 0.00 0.00 0.00 68 1018.2
20260502035550 50 300 0.0 2.0 0.00 0.00 0.00 69 1018.3
20260502035048 50 345 1.0 4.0 0.00 0.00 0.00 67 1018.3
20260502034546 50 25 0.0 1.0 0.00 0.00 0.00 69 1018.2
20260502034044 50 10 1.0 2.0 0.00 0.00 0.00 68 1018.3
20260502033542 50 300 0.0 0.0 0.00 0.00 0.00 69 1018.3
20260502033039 50 338 0.0 0.0 0.00 0.00 0.00 70 1018.3
20260502032534 50 320 0.0 0.0 0.00 0.00 0.00 70 1018.3
20260502032031 50 318 0.0 0.0 0.00 0.00 0.00 68 1018.6
20260502031529 51 39 0.0 0.0 0.00 0.00 0.00 68 1018.4
20260502031027 51 307 1.0 2.0 0.00 0.00 0.00 65 1018.5
20260502030526 51 303 0.0 2.0 0.00 0.00 0.00 68 1018.2
20260502030023 51 359 1.0 2.0 0.00 0.00 0.00 67 1018.1
20260502025520 51 326 2.0 2.0 0.00 0.00 0.00 67 1018.1
20260502025018 51 323 1.0 2.0 0.00 0.00 0.00 66 1018.1
20260502024515 51 304 0.0 2.0 0.00 0.00 0.00 67 1018.0
20260502024014 51 317 2.0 4.0 0.00 0.00 0.00 66 1018.0
20260502023511 51 20 4.0 8.0 0.00 0.00 0.00 65 1018.0
20260502023008 51 307 5.0 8.0 0.00 0.00 0.00 65 1017.9
20260502022504 51 325 1.0 3.0 0.00 0.00 0.00 67 1017.5
20260502022002 51 285 3.0 3.0 0.00 0.00 0.00 66 1017.4
20260502021459 51 75 2.0 3.0 0.00 0.00 0.00 69 1017.4
20260502020956 52 278 0.0 3.0 0.00 0.00 0.00 67 1017.5
20260502020454 52 325 3.0 4.0 0.00 0.00 0.00 66 1017.5
20260502015950 52 38 3.0 4.0 0.00 0.00 0.00 66 1016.9
20260502015448 52 355 3.0 7.0 0.00 0.00 0.00 68 1016.9
20260502014944 52 308 4.0 7.0 0.00 0.00 0.00 69 1016.8
20260502014441 52 290 1.0 4.0 0.00 0.00 0.00 69 1016.9
20260502013938 52 318 1.0 1.0 0.00 0.00 0.00 70 1016.7
20260502013433 52 259 0.0 2.0 0.00 0.00 0.00 70 1016.7
20260502012930 53 351 1.0 3.0 0.00 0.00 0.00 69 1016.6
20260502012428 53 336 1.0 2.0 0.00 0.00 0.00 70 1016.7
20260502011925 53 327 2.0 2.0 0.00 0.00 0.00 69 1016.4
20260502011421 53 68 5.0 8.0 0.00 0.00 0.00 69 1016.2
20260502010918 53 324 2.0 3.0 0.00 0.00 0.00 69 1016.3
20260502010415 53 356 4.0 9.0 0.00 0.00 0.00 68 1016.2
20260502005911 53 244 2.0 3.0 0.00 0.00 0.00 68 1016.2
20260502005410 53 343 4.0 6.0 0.00 0.00 0.00 68 1015.9
20260502004907 54 277 2.0 3.0 0.00 0.00 0.00 68 1015.8
20260502004403 54 106 0.0 3.0 0.00 0.00 0.00 67 1015.7
20260502003900 54 270 6.0 7.0 0.00 0.00 0.00 66 1015.7
20260502003357 55 308 1.0 2.0 0.00 0.00 0.00 65 1015.7
20260502002854 55 320 3.0 4.0 0.00 0.00 0.00 63 1015.4
20260502002351 55 289 5.0 9.0 0.00 0.00 0.00 62 1015.2
20260502001848 55 340 2.0 4.0 0.00 0.00 0.00 62 1015.2
20260502001346 56 10 2.0 4.0 0.00 0.00 0.00 61 1014.8
20260502000843 56 317 3.0 6.0 0.00 0.00 0.00 60 1014.7
20260502000341 56 33 2.0 7.0 0.00 0.00 0.00 59 1014.7
20260501235837 57 22 5.0 14.0 0.00 0.00 0.00 57 1014.5
20260501235333 58 337 8.0 14.0 0.00 0.00 0.00 55 1014.0
20260501234828 59 319 4.0 8.0 0.00 0.00 0.00 53 1013.8
20260501234326 59 342 6.0 15.0 0.00 0.00 0.00 50 1013.7
20260501233824 60 322 4.0 9.0 0.00 0.00 0.00 49 1013.3
20260501233321 61 352 8.0 13.0 0.00 0.00 0.00 46 1013.3
20260501232817 63 319 12.0 17.0 0.00 0.00 0.00 40 1013.1
20260501232314 63 313 1.0 4.0 0.00 0.00 0.00 40 1012.9
20260501231812 64 279 1.0 3.0 0.00 0.00 0.00 39 1012.9
20260501231309 64 290 3.0 7.0 0.00 0.00 0.00 37 1012.9
20260501230808 64 289 3.0 6.0 0.00 0.00 0.00 35 1013.0
20260501230306 64 334 3.0 6.0 0.00 0.00 0.00 37 1013.0
20260501225803 64 304 3.0 8.0 0.00 0.00 0.00 34 1012.9
20260501225301 65 326 6.0 8.0 0.00 0.00 0.00 35 1013.0
20260501224756 65 304 2.0 6.0 0.00 0.00 0.00 34 1012.9
20260501224254 65 297 4.0 7.0 0.00 0.00 0.00 34 1013.0
20260501223750 65 314 6.0 9.0 0.00 0.00 0.00 36 1012.8
20260501223247 65 273 2.0 3.0 0.00 0.00 0.00 37 1013.0
20260501222742 65 300 2.0 4.0 0.00 0.00 0.00 33 1012.8
20260501222240 65 302 4.0 6.0 0.00 0.00 0.00 32 1013.0
20260501221737 66 262 2.0 6.0 0.00 0.00 0.00 32 1012.8
20260501221234 66 246 3.0 6.0 0.00 0.00 0.00 35 1012.8
20260501220731 66 234 5.0 13.0 0.00 0.00 0.00 33 1012.9
20260501220229 65 334 5.0 11.0 0.00 0.00 0.00 32 1012.8
20260501215726 66 342 2.0 3.0 0.00 0.00 0.00 35 1013.1
20260501215221 67 276 4.0 8.0 0.00 0.00 0.00 32 1013.0
20260501214716 67 343 5.0 10.0 0.00 0.00 0.00 32 1012.9
20260501214213 65 285 2.0 6.0 0.00 0.00 0.00 33 1012.9
20260501213709 66 286 2.0 9.0 0.00 0.00 0.00 32 1012.9
20260501213205 68 346 5.0 8.0 0.00 0.00 0.00 30 1012.8
20260501212701 67 250 3.0 6.0 0.00 0.00 0.00 33 1012.8
20260501212158 67 310 2.0 4.0 0.00 0.00 0.00 34 1012.9
20260501211655 69 222 4.0 6.0 0.00 0.00 0.00 34 1012.8
20260501211153 69 304 3.0 8.0 0.00 0.00 0.00 29 1012.8
20260501210649 68 281 3.0 9.0 0.00 0.00 0.00 29 1012.8
20260501210146 68 293 3.0 14.0 0.00 0.00 0.00 30 1012.7
20260501205642 68 331 8.0 14.0 0.00 0.00 0.00 29 1012.7
20260501205140 69 327 10.0 13.0 0.00 0.00 0.00 29 1012.8
20260501204636 70 291 5.0 7.0 0.00 0.00 0.00 26 1012.6
20260501204132 69 207 3.0 9.0 0.00 0.00 0.00 31 1012.7
20260501203629 71 285 4.0 6.0 0.00 0.00 0.00 28 1012.6
20260501203127 71 309 6.0 8.0 0.00 0.00 0.00 26 1012.5
20260501202623 71 306 6.0 10.0 0.00 0.00 0.00 30 1012.6
20260501202120 71 294 5.0 9.0 0.00 0.00 0.00 31 1012.6
20260501201617 69 268 4.0 8.0 0.00 0.00 0.00 28 1012.7
20260501201114 68 308 2.0 9.0 0.00 0.00 0.00 28 1012.7
20260501200611 70 9 6.0 16.0 0.00 0.00 0.00 27 1012.8
20260501200108 70 298 6.0 9.0 0.00 0.00 0.00 29 1012.9
20260501195606 68 269 2.0 4.0 0.00 0.00 0.00 30 1012.8
20260501195101 69 255 3.0 4.0 0.00 0.00 0.00 31 1012.6
20260501194556 68 297 3.0 4.0 0.00 0.00 0.00 31 1012.8
20260501194053 68 308 2.0 3.0 0.00 0.00 0.00 29 1013.0
20260501193550 68 63 1.0 7.0 0.00 0.00 0.00 28 1013.0
20260501193049 67 354 3.0 4.0 0.00 0.00 0.00 35 1013.1
20260501192545 67 34 3.0 6.0 0.00 0.00 0.00 31 1013.1
20260501192043 67 275 4.0 7.0 0.00 0.00 0.00 30 1013.5
20260501191540 67 329 0.0 0.0 0.00 0.00 0.00 32 1013.5
20260501191037 66 110 1.0 1.0 0.00 0.00 0.00 32 1013.5
20260501190532 66 259 2.0 4.0 0.00 0.00 0.00 41 1013.6
20260501190028 66 299 1.0 2.0 0.00 0.00 0.00 34 1013.8
20260501185525 66 65 2.0 7.0 0.00 0.00 0.00 36 1013.6
20260501185021 69 105 3.0 6.0 0.00 0.00 0.00 38 1013.7
20260501184518 68 276 3.0 6.0 0.00 0.00 0.00 30 1013.8
20260501184017 68 255 4.0 4.0 0.00 0.00 0.00 34 1014.0
20260501183515 69 191 2.0 2.0 0.00 0.00 0.00 31 1014.1
20260501183011 67 116 0.0 4.0 0.00 0.00 0.00 42 1014.0
20260501182508 67 208 1.0 3.0 0.00 0.00 0.00 43 1014.1
20260501182005 67 147 4.0 4.0 0.00 0.00 0.00 42 1014.2
20260501181502 67 17 2.0 6.0 0.00 0.00 0.00 34 1014.4
20260501180959 66 204 1.0 8.0 0.00 0.00 0.00 42 1014.6
20260501180456 67 242 5.0 7.0 0.00 0.00 0.00 45 1014.6
20260501175952 66 19 2.0 3.0 0.00 0.00 0.00 45 1014.6
20260501175449 66 275 2.0 3.0 0.00 0.00 0.00 41 1014.8
20260501174945 65 290 4.0 4.0 0.00 0.00 0.00 42 1014.8
20260501174443 65 290 3.0 3.0 0.00 0.00 0.00 37 1014.8
20260501173941 65 350 2.0 2.0 0.00 0.00 0.00 43 1015.0
20260501173438 64 92 1.0 1.0 0.00 0.00 0.00 40 1015.0
20260501172934 65 282 2.0 7.0 0.00 0.00 0.00 36 1015.1
20260501172430 65 338 1.0 7.0 0.00 0.00 0.00 35 1015.1
20260501171925 65 250 0.0 3.0 0.00 0.00 0.00 47 1015.3
20260501171422 64 96 2.0 3.0 0.00 0.00 0.00 39 1015.2
20260501170918 64 142 3.0 3.0 0.00 0.00 0.00 38 1015.3
20260501170415 62 74 3.0 8.0 0.00 0.00 0.00 38 1015.5
20260501165913 63 311 6.0 7.0 0.00 0.00 0.00 37 1015.7
20260501165411 63 83 2.0 3.0 0.00 0.00 0.00 39 1015.5
20260501164908 63 247 3.0 4.0 0.00 0.00 0.00 40 1015.3
20260501164406 62 276 4.0 4.0 0.00 0.00 0.00 44 1015.7
20260501163902 62 266 3.0 3.0 0.00 0.00 0.00 43 1015.5
20260501163358 63 325 5.0 6.0 0.00 0.00 0.00 39 1016.0
20260501162855 62 224 2.0 4.0 0.00 0.00 0.00 44 1016.0
20260501162352 62 304 1.0 6.0 0.00 0.00 0.00 50 1016.1
20260501161849 61 282 2.0 4.0 0.00 0.00 0.00 55 1016.2
20260501161345 60 245 2.0 6.0 0.00 0.00 0.00 49 1016.3
20260501160842 60 272 4.0 8.0 0.00 0.00 0.00 56 1016.6
20260501160339 60 241 3.0 3.0 0.00 0.00 0.00 57 1016.4
20260501155837 58 35 2.0 3.0 0.00 0.00 0.00 55 1016.5
20260501155333 57 21 2.0 3.0 0.00 0.00 0.00 59 1016.5